owner,sensor,date,latitude,longitude,vertical_datum,sea_water_temperature,qcFlag 
ENP,ioos.station.NOAA.NDBC:WIWF1:1,2017-11-01T00:00:00Z,25.5870,-81.0440,1.0,22.03,2 
ENP,ioos.station.NOAA.NDBC:WIWF1:1,2017-11-01T01:00:00Z,25.5870,-81.0440,1.0,21.89,2 
ENP,ioos.station.NOAA.NDBC:WIWF1:1,2017-11-01T03:00:00Z,25.5870,-81.0440,1.0,21.64,2 
ENP,ioos.station.NOAA.NDBC:WIWF1:1,2017-11-01T04:00:00Z,25.5870,-81.0440,1.0,21.56,2 
ENP,ioos.station.NOAA.NDBC:WIWF1:1,2017-11-01T07:00:00Z,25.5870,-81.0440,1.0,21.37,2 
ENP,ioos.station.NOAA.NDBC:WIWF1:1,2017-11-01T08:00:00Z,25.5870,-81.0440,1.0,21.31,2 
ENP,ioos.station.NOAA.NDBC:WIWF1:1,2017-11-01T09:00:00Z,25.5870,-81.0440,1.0,21.24,2 
ENP,ioos.station.NOAA.NDBC:WIWF1:1,2017-11-01T12:00:00Z,25.5870,-81.0440,1.0,20.89,2 
ENP,ioos.station.NOAA.NDBC:WIWF1:1,2017-11-01T13:00:00Z,25.5870,-81.0440,1.0,20.8,2 
ENP,ioos.station.NOAA.NDBC:WIWF1:1,2017-11-01T14:00:00Z,25.5870,-81.0440,1.0,20.77,2 
ENP,ioos.station.NOAA.NDBC:WIWF1:1,2017-11-01T15:00:00Z,25.5870,-81.0440,1.0,20.89,2 
ENP,ioos.station.NOAA.NDBC:WIWF1:1,2017-11-01T16:00:00Z,25.5870,-81.0440,1.0,21.24,2 
ENP,ioos.station.NOAA.NDBC:WIWF1:1,2017-11-01T17:00:00Z,25.5870,-81.0440,1.0,21.75,2 
ENP,ioos.station.NOAA.NDBC:WIWF1:1,2017-11-01T18:00:00Z,25.5870,-81.0440,1.0,22.29,2 
ENP,ioos.station.NOAA.NDBC:WIWF1:1,2017-11-01T19:00:00Z,25.5870,-81.0440,1.0,22.78,2 
ENP,ioos.station.NOAA.NDBC:WIWF1:1,2017-11-01T20:00:00Z,25.5870,-81.0440,1.0,23.21,2 
ENP,ioos.station.NOAA.NDBC:WIWF1:1,2017-11-01T21:00:00Z,25.5870,-81.0440,1.0,23.53,2 
ENP,ioos.station.NOAA.NDBC:WIWF1:1,2017-11-01T22:00:00Z,25.5870,-81.0440,1.0,23.63,2 
ENP,ioos.station.NOAA.NDBC:WIWF1:1,2017-11-01T23:00:00Z,25.5870,-81.0440,1.0,23.6,2 
ENP,ioos.station.NOAA.NDBC:WIWF1:1,2017-11-02T00:00:00Z,25.5870,-81.0440,1.0,23.45,2 
ENP,ioos.station.NOAA.NDBC:WIWF1:1,2017-11-02T01:00:00Z,25.5870,-81.0440,1.0,23.3,2 
ENP,ioos.station.NOAA.NDBC:WIWF1:1,2017-11-02T03:00:00Z,25.5870,-81.0440,1.0,22.9,2 
ENP,ioos.station.NOAA.NDBC:WIWF1:1,2017-11-02T04:00:00Z,25.5870,-81.0440,1.0,22.75,2 
ENP,ioos.station.NOAA.NDBC:WIWF1:1,2017-11-02T06:00:00Z,25.5870,-81.0440,1.0,22.64,2 
ENP,ioos.station.NOAA.NDBC:WIWF1:1,2017-11-02T07:00:00Z,25.5870,-81.0440,1.0,22.57,2 
ENP,ioos.station.NOAA.NDBC:WIWF1:1,2017-11-02T08:00:00Z,25.5870,-81.0440,1.0,22.51,2 
ENP,ioos.station.NOAA.NDBC:WIWF1:1,2017-11-02T09:00:00Z,25.5870,-81.0440,1.0,22.44,2 
ENP,ioos.station.NOAA.NDBC:WIWF1:1,2017-11-02T11:00:00Z,25.5870,-81.0440,1.0,22.23,2 
ENP,ioos.station.NOAA.NDBC:WIWF1:1,2017-11-02T12:00:00Z,25.5870,-81.0440,1.0,22.12,2 
ENP,ioos.station.NOAA.NDBC:WIWF1:1,2017-11-02T13:00:00Z,25.5870,-81.0440,1.0,22.05,2 
ENP,ioos.station.NOAA.NDBC:WIWF1:1,2017-11-02T14:00:00Z,25.5870,-81.0440,1.0,22.06,2 
ENP,ioos.station.NOAA.NDBC:WIWF1:1,2017-11-02T15:00:00Z,25.5870,-81.0440,1.0,22.19,2 
ENP,ioos.station.NOAA.NDBC:WIWF1:1,2017-11-02T16:00:00Z,25.5870,-81.0440,1.0,22.5,2 
ENP,ioos.station.NOAA.NDBC:WIWF1:1,2017-11-02T17:00:00Z,25.5870,-81.0440,1.0,22.97,2 
ENP,ioos.station.NOAA.NDBC:WIWF1:1,2017-11-02T18:00:00Z,25.5870,-81.0440,1.0,23.55,2 
ENP,ioos.station.NOAA.NDBC:WIWF1:1,2017-11-02T19:00:00Z,25.5870,-81.0440,1.0,24.04,2 
ENP,ioos.station.NOAA.NDBC:WIWF1:1,2017-11-02T20:00:00Z,25.5870,-81.0440,1.0,24.44,2 
ENP,ioos.station.NOAA.NDBC:WIWF1:1,2017-11-02T21:00:00Z,25.5870,-81.0440,1.0,24.62,2 
ENP,ioos.station.NOAA.NDBC:WIWF1:1,2017-11-02T22:00:00Z,25.5870,-81.0440,1.0,24.72,2 
ENP,ioos.station.NOAA.NDBC:WIWF1:1,2017-11-02T23:00:00Z,25.5870,-81.0440,1.0,24.75,2 
ENP,ioos.station.NOAA.NDBC:WIWF1:1,2017-11-03T00:00:00Z,25.5870,-81.0440,1.0,24.68,2 
ENP,ioos.station.NOAA.NDBC:WIWF1:1,2017-11-03T01:00:00Z,25.5870,-81.0440,1.0,24.58,2 
ENP,ioos.station.NOAA.NDBC:WIWF1:1,2017-11-03T03:00:00Z,25.5870,-81.0440,1.0,24.3,2 
ENP,ioos.station.NOAA.NDBC:WIWF1:1,2017-11-03T04:00:00Z,25.5870,-81.0440,1.0,24.16,2 
ENP,ioos.station.NOAA.NDBC:WIWF1:1,2017-11-03T06:00:00Z,25.5870,-81.0440,1.0,23.99,2 
ENP,ioos.station.NOAA.NDBC:WIWF1:1,2017-11-03T07:00:00Z,25.5870,-81.0440,1.0,23.93,2 
ENP,ioos.station.NOAA.NDBC:WIWF1:1,2017-11-03T08:00:00Z,25.5870,-81.0440,1.0,23.85,2 
ENP,ioos.station.NOAA.NDBC:WIWF1:1,2017-11-03T09:00:00Z,25.5870,-81.0440,1.0,23.78,2 
ENP,ioos.station.NOAA.NDBC:WIWF1:1,2017-11-03T11:00:00Z,25.5870,-81.0440,1.0,23.57,2 
ENP,ioos.station.NOAA.NDBC:WIWF1:1,2017-11-03T12:00:00Z,25.5870,-81.0440,1.0,23.46,2 
ENP,ioos.station.NOAA.NDBC:WIWF1:1,2017-11-03T13:00:00Z,25.5870,-81.0440,1.0,23.38,2 
ENP,ioos.station.NOAA.NDBC:WIWF1:1,2017-11-03T14:00:00Z,25.5870,-81.0440,1.0,23.36,2 
ENP,ioos.station.NOAA.NDBC:WIWF1:1,2017-11-03T15:00:00Z,25.5870,-81.0440,1.0,23.5,2 
ENP,ioos.station.NOAA.NDBC:WIWF1:1,2017-11-03T16:00:00Z,25.5870,-81.0440,1.0,23.78,2 
ENP,ioos.station.NOAA.NDBC:WIWF1:1,2017-11-03T17:00:00Z,25.5870,-81.0440,1.0,24.18,2 
ENP,ioos.station.NOAA.NDBC:WIWF1:1,2017-11-03T18:00:00Z,25.5870,-81.0440,1.0,24.65,2 
ENP,ioos.station.NOAA.NDBC:WIWF1:1,2017-11-03T19:00:00Z,25.5870,-81.0440,1.0,25.1,2 
ENP,ioos.station.NOAA.NDBC:WIWF1:1,2017-11-03T20:00:00Z,25.5870,-81.0440,1.0,25.41,2 
ENP,ioos.station.NOAA.NDBC:WIWF1:1,2017-11-03T21:00:00Z,25.5870,-81.0440,1.0,25.64,2 
ENP,ioos.station.NOAA.NDBC:WIWF1:1,2017-11-03T22:00:00Z,25.5870,-81.0440,1.0,25.68,2 
ENP,ioos.station.NOAA.NDBC:WIWF1:1,2017-11-03T23:00:00Z,25.5870,-81.0440,1.0,25.63,2 
ENP,ioos.station.NOAA.NDBC:WIWF1:1,2017-11-04T00:00:00Z,25.5870,-81.0440,1.0,25.47,2 
ENP,ioos.station.NOAA.NDBC:WIWF1:1,2017-11-04T01:00:00Z,25.5870,-81.0440,1.0,25.36,2 
ENP,ioos.station.NOAA.NDBC:WIWF1:1,2017-11-04T04:00:00Z,25.5870,-81.0440,1.0,24.87,2 
ENP,ioos.station.NOAA.NDBC:WIWF1:1,2017-11-04T06:00:00Z,25.5870,-81.0440,1.0,24.74,2 
ENP,ioos.station.NOAA.NDBC:WIWF1:1,2017-11-04T07:00:00Z,25.5870,-81.0440,1.0,24.72,2 
ENP,ioos.station.NOAA.NDBC:WIWF1:1,2017-11-04T08:00:00Z,25.5870,-81.0440,1.0,24.7,2 
ENP,ioos.station.NOAA.NDBC:WIWF1:1,2017-11-04T09:00:00Z,25.5870,-81.0440,1.0,24.68,2 
ENP,ioos.station.NOAA.NDBC:WIWF1:1,2017-11-04T11:00:00Z,25.5870,-81.0440,1.0,24.55,2 
ENP,ioos.station.NOAA.NDBC:WIWF1:1,2017-11-04T12:00:00Z,25.5870,-81.0440,1.0,24.47,2 
ENP,ioos.station.NOAA.NDBC:WIWF1:1,2017-11-04T13:00:00Z,25.5870,-81.0440,1.0,24.42,2 
ENP,ioos.station.NOAA.NDBC:WIWF1:1,2017-11-04T14:00:00Z,25.5870,-81.0440,1.0,24.42,2 
ENP,ioos.station.NOAA.NDBC:WIWF1:1,2017-11-04T15:00:00Z,25.5870,-81.0440,1.0,24.48,2 
ENP,ioos.station.NOAA.NDBC:WIWF1:1,2017-11-04T16:00:00Z,25.5870,-81.0440,1.0,24.57,2 
ENP,ioos.station.NOAA.NDBC:WIWF1:1,2017-11-04T17:00:00Z,25.5870,-81.0440,1.0,24.84,2 
ENP,ioos.station.NOAA.NDBC:WIWF1:1,2017-11-04T18:00:00Z,25.5870,-81.0440,1.0,25.16,2 
ENP,ioos.station.NOAA.NDBC:WIWF1:1,2017-11-04T19:00:00Z,25.5870,-81.0440,1.0,25.62,2 
ENP,ioos.station.NOAA.NDBC:WIWF1:1,2017-11-04T20:00:00Z,25.5870,-81.0440,1.0,25.96,2 
ENP,ioos.station.NOAA.NDBC:WIWF1:1,2017-11-04T21:00:00Z,25.5870,-81.0440,1.0,26.16,2 
ENP,ioos.station.NOAA.NDBC:WIWF1:1,2017-11-04T22:00:00Z,25.5870,-81.0440,1.0,26.24,2 
ENP,ioos.station.NOAA.NDBC:WIWF1:1,2017-11-04T23:00:00Z,25.5870,-81.0440,1.0,26.2,2 
ENP,ioos.station.NOAA.NDBC:WIWF1:1,2017-11-05T00:00:00Z,25.5870,-81.0440,1.0,26.08,2 
ENP,ioos.station.NOAA.NDBC:WIWF1:1,2017-11-05T01:00:00Z,25.5870,-81.0440,1.0,25.97,2 
ENP,ioos.station.NOAA.NDBC:WIWF1:1,2017-11-05T04:00:00Z,25.5870,-81.0440,1.0,25.64,2 
ENP,ioos.station.NOAA.NDBC:WIWF1:1,2017-11-05T05:00:00Z,25.5870,-81.0440,1.0,25.44,2 
ENP,ioos.station.NOAA.NDBC:WIWF1:1,2017-11-05T09:00:00Z,25.5870,-81.0440,1.0,24.8,2 
ENP,ioos.station.NOAA.NDBC:WIWF1:1,2017-11-05T10:00:00Z,25.5870,-81.0440,1.0,24.67,2 
ENP,ioos.station.NOAA.NDBC:WIWF1:1,2017-11-05T13:00:00Z,25.5870,-81.0440,1.0,24.36,2 
ENP,ioos.station.NOAA.NDBC:WIWF1:1,2017-11-05T14:00:00Z,25.5870,-81.0440,1.0,24.34,2 
ENP,ioos.station.NOAA.NDBC:WIWF1:1,2017-11-05T15:00:00Z,25.5870,-81.0440,1.0,24.44,2 
ENP,ioos.station.NOAA.NDBC:WIWF1:1,2017-11-05T16:00:00Z,25.5870,-81.0440,1.0,24.74,2 
ENP,ioos.station.NOAA.NDBC:WIWF1:1,2017-11-05T17:00:00Z,25.5870,-81.0440,1.0,25.12,2 
ENP,ioos.station.NOAA.NDBC:WIWF1:1,2017-11-05T18:00:00Z,25.5870,-81.0440,1.0,25.56,2 
ENP,ioos.station.NOAA.NDBC:WIWF1:1,2017-11-05T19:00:00Z,25.5870,-81.0440,1.0,26.04,2 
ENP,ioos.station.NOAA.NDBC:WIWF1:1,2017-11-05T20:00:00Z,25.5870,-81.0440,1.0,26.38,2 
ENP,ioos.station.NOAA.NDBC:WIWF1:1,2017-11-05T21:00:00Z,25.5870,-81.0440,1.0,26.62,2 
ENP,ioos.station.NOAA.NDBC:WIWF1:1,2017-11-05T22:00:00Z,25.5870,-81.0440,1.0,26.69,2 
ENP,ioos.station.NOAA.NDBC:WIWF1:1,2017-11-05T23:00:00Z,25.5870,-81.0440,1.0,26.66,2 
ENP,ioos.station.NOAA.NDBC:WIWF1:1,2017-11-06T00:00:00Z,25.5870,-81.0440,1.0,26.54,2 
ENP,ioos.station.NOAA.NDBC:WIWF1:1,2017-11-06T01:00:00Z,25.5870,-81.0440,1.0,26.39,2 
ENP,ioos.station.NOAA.NDBC:WIWF1:1,2017-11-06T02:00:00Z,25.5870,-81.0440,1.0,26.26,2 
ENP,ioos.station.NOAA.NDBC:WIWF1:1,2017-11-06T04:00:00Z,25.5870,-81.0440,1.0,26.03,2 
ENP,ioos.station.NOAA.NDBC:WIWF1:1,2017-11-06T05:00:00Z,25.5870,-81.0440,1.0,25.92,2 
ENP,ioos.station.NOAA.NDBC:WIWF1:1,2017-11-06T07:00:00Z,25.5870,-81.0440,1.0,25.69,2 
ENP,ioos.station.NOAA.NDBC:WIWF1:1,2017-11-06T08:00:00Z,25.5870,-81.0440,1.0,25.62,2 
ENP,ioos.station.NOAA.NDBC:WIWF1:1,2017-11-06T09:00:00Z,25.5870,-81.0440,1.0,25.56,2 
ENP,ioos.station.NOAA.NDBC:WIWF1:1,2017-11-06T10:00:00Z,25.5870,-81.0440,1.0,25.53,2 
ENP,ioos.station.NOAA.NDBC:WIWF1:1,2017-11-06T12:00:00Z,25.5870,-81.0440,1.0,25.3,2 
ENP,ioos.station.NOAA.NDBC:WIWF1:1,2017-11-06T13:00:00Z,25.5870,-81.0440,1.0,25.24,2 
ENP,ioos.station.NOAA.NDBC:WIWF1:1,2017-11-06T14:00:00Z,25.5870,-81.0440,1.0,25.26,2 
ENP,ioos.station.NOAA.NDBC:WIWF1:1,2017-11-06T15:00:00Z,25.5870,-81.0440,1.0,25.37,2 
ENP,ioos.station.NOAA.NDBC:WIWF1:1,2017-11-06T16:00:00Z,25.5870,-81.0440,1.0,25.67,2 
ENP,ioos.station.NOAA.NDBC:WIWF1:1,2017-11-06T17:00:00Z,25.5870,-81.0440,1.0,25.99,2 
ENP,ioos.station.NOAA.NDBC:WIWF1:1,2017-11-06T18:00:00Z,25.5870,-81.0440,1.0,26.38,2 
ENP,ioos.station.NOAA.NDBC:WIWF1:1,2017-11-06T19:00:00Z,25.5870,-81.0440,1.0,26.8,2 
ENP,ioos.station.NOAA.NDBC:WIWF1:1,2017-11-06T20:00:00Z,25.5870,-81.0440,1.0,27.2,2 
ENP,ioos.station.NOAA.NDBC:WIWF1:1,2017-11-06T21:00:00Z,25.5870,-81.0440,1.0,27.44,2 
ENP,ioos.station.NOAA.NDBC:WIWF1:1,2017-11-06T22:00:00Z,25.5870,-81.0440,1.0,27.55,2 
ENP,ioos.station.NOAA.NDBC:WIWF1:1,2017-11-06T23:00:00Z,25.5870,-81.0440,1.0,27.53,2 
ENP,ioos.station.NOAA.NDBC:WIWF1:1,2017-11-07T00:00:00Z,25.5870,-81.0440,1.0,27.45,2 
ENP,ioos.station.NOAA.NDBC:WIWF1:1,2017-11-07T01:00:00Z,25.5870,-81.0440,1.0,27.31,2 
ENP,ioos.station.NOAA.NDBC:WIWF1:1,2017-11-07T02:00:00Z,25.5870,-81.0440,1.0,27.1,2 
ENP,ioos.station.NOAA.NDBC:WIWF1:1,2017-11-07T04:00:00Z,25.5870,-81.0440,1.0,26.74,2 
ENP,ioos.station.NOAA.NDBC:WIWF1:1,2017-11-07T05:00:00Z,25.5870,-81.0440,1.0,26.58,2 
ENP,ioos.station.NOAA.NDBC:WIWF1:1,2017-11-07T07:00:00Z,25.5870,-81.0440,1.0,26.37,2 
ENP,ioos.station.NOAA.NDBC:WIWF1:1,2017-11-07T08:00:00Z,25.5870,-81.0440,1.0,26.28,2 
ENP,ioos.station.NOAA.NDBC:WIWF1:1,2017-11-07T09:00:00Z,25.5870,-81.0440,1.0,26.2,2 
ENP,ioos.station.NOAA.NDBC:WIWF1:1,2017-11-07T10:00:00Z,25.5870,-81.0440,1.0,26.13,2 
ENP,ioos.station.NOAA.NDBC:WIWF1:1,2017-11-07T12:00:00Z,25.5870,-81.0440,1.0,25.91,2 
ENP,ioos.station.NOAA.NDBC:WIWF1:1,2017-11-07T13:00:00Z,25.5870,-81.0440,1.0,25.83,2 
ENP,ioos.station.NOAA.NDBC:WIWF1:1,2017-11-07T14:00:00Z,25.5870,-81.0440,1.0,25.81,2 
ENP,ioos.station.NOAA.NDBC:WIWF1:1,2017-11-07T15:00:00Z,25.5870,-81.0440,1.0,25.92,2 
ENP,ioos.station.NOAA.NDBC:WIWF1:1,2017-11-07T16:00:00Z,25.5870,-81.0440,1.0,26.19,2 
ENP,ioos.station.NOAA.NDBC:WIWF1:1,2017-11-07T17:00:00Z,25.5870,-81.0440,1.0,26.53,2 
ENP,ioos.station.NOAA.NDBC:WIWF1:1,2017-11-07T18:00:00Z,25.5870,-81.0440,1.0,26.85,2 
ENP,ioos.station.NOAA.NDBC:WIWF1:1,2017-11-07T19:00:00Z,25.5870,-81.0440,1.0,27.33,2 
ENP,ioos.station.NOAA.NDBC:WIWF1:1,2017-11-07T20:00:00Z,25.5870,-81.0440,1.0,27.71,2 
ENP,ioos.station.NOAA.NDBC:WIWF1:1,2017-11-07T21:00:00Z,25.5870,-81.0440,1.0,27.93,2 
ENP,ioos.station.NOAA.NDBC:WIWF1:1,2017-11-07T22:00:00Z,25.5870,-81.0440,1.0,27.97,2 
ENP,ioos.station.NOAA.NDBC:WIWF1:1,2017-11-07T23:00:00Z,25.5870,-81.0440,1.0,27.88,2 
ENP,ioos.station.NOAA.NDBC:WIWF1:1,2017-11-08T00:00:00Z,25.5870,-81.0440,1.0,27.72,2 
ENP,ioos.station.NOAA.NDBC:WIWF1:1,2017-11-08T01:00:00Z,25.5870,-81.0440,1.0,27.55,2 
ENP,ioos.station.NOAA.NDBC:WIWF1:1,2017-11-08T02:00:00Z,25.5870,-81.0440,1.0,27.36,2 
ENP,ioos.station.NOAA.NDBC:WIWF1:1,2017-11-08T05:00:00Z,25.5870,-81.0440,1.0,26.83,2 
ENP,ioos.station.NOAA.NDBC:WIWF1:1,2017-11-08T06:00:00Z,25.5870,-81.0440,1.0,26.69,2 
ENP,ioos.station.NOAA.NDBC:WIWF1:1,2017-11-08T08:00:00Z,25.5870,-81.0440,1.0,26.44,2 
ENP,ioos.station.NOAA.NDBC:WIWF1:1,2017-11-08T09:00:00Z,25.5870,-81.0440,1.0,26.34,2 
ENP,ioos.station.NOAA.NDBC:WIWF1:1,2017-11-08T10:00:00Z,25.5870,-81.0440,1.0,26.25,2 
ENP,ioos.station.NOAA.NDBC:WIWF1:1,2017-11-08T12:00:00Z,25.5870,-81.0440,1.0,26.09,2 
ENP,ioos.station.NOAA.NDBC:WIWF1:1,2017-11-08T13:00:00Z,25.5870,-81.0440,1.0,25.97,2 
ENP,ioos.station.NOAA.NDBC:WIWF1:1,2017-11-08T14:00:00Z,25.5870,-81.0440,1.0,25.97,2 
ENP,ioos.station.NOAA.NDBC:WIWF1:1,2017-11-08T15:00:00Z,25.5870,-81.0440,1.0,26.09,2 
ENP,ioos.station.NOAA.NDBC:WIWF1:1,2017-11-08T16:00:00Z,25.5870,-81.0440,1.0,26.34,2 
ENP,ioos.station.NOAA.NDBC:WIWF1:1,2017-11-08T17:00:00Z,25.5870,-81.0440,1.0,26.66,2 
ENP,ioos.station.NOAA.NDBC:WIWF1:1,2017-11-08T18:00:00Z,25.5870,-81.0440,1.0,26.99,2 
ENP,ioos.station.NOAA.NDBC:WIWF1:1,2017-11-08T19:00:00Z,25.5870,-81.0440,1.0,27.39,2 
ENP,ioos.station.NOAA.NDBC:WIWF1:1,2017-11-08T20:00:00Z,25.5870,-81.0440,1.0,27.84,2 
ENP,ioos.station.NOAA.NDBC:WIWF1:1,2017-11-08T21:00:00Z,25.5870,-81.0440,1.0,27.99,2 
ENP,ioos.station.NOAA.NDBC:WIWF1:1,2017-11-08T22:00:00Z,25.5870,-81.0440,1.0,28.0,2 
ENP,ioos.station.NOAA.NDBC:WIWF1:1,2017-11-08T23:00:00Z,25.5870,-81.0440,1.0,27.88,2 
ENP,ioos.station.NOAA.NDBC:WIWF1:1,2017-11-09T00:00:00Z,25.5870,-81.0440,1.0,27.73,2 
ENP,ioos.station.NOAA.NDBC:WIWF1:1,2017-11-09T01:00:00Z,25.5870,-81.0440,1.0,27.55,2 
ENP,ioos.station.NOAA.NDBC:WIWF1:1,2017-11-09T02:00:00Z,25.5870,-81.0440,1.0,27.32,2 
ENP,ioos.station.NOAA.NDBC:WIWF1:1,2017-11-09T04:00:00Z,25.5870,-81.0440,1.0,26.87,2 
ENP,ioos.station.NOAA.NDBC:WIWF1:1,2017-11-09T05:00:00Z,25.5870,-81.0440,1.0,26.7,2 
ENP,ioos.station.NOAA.NDBC:WIWF1:1,2017-11-09T07:00:00Z,25.5870,-81.0440,1.0,26.4,2 
ENP,ioos.station.NOAA.NDBC:WIWF1:1,2017-11-09T08:00:00Z,25.5870,-81.0440,1.0,26.29,2 
ENP,ioos.station.NOAA.NDBC:WIWF1:1,2017-11-09T09:00:00Z,25.5870,-81.0440,1.0,26.19,2 
ENP,ioos.station.NOAA.NDBC:WIWF1:1,2017-11-09T10:00:00Z,25.5870,-81.0440,1.0,26.11,2 
ENP,ioos.station.NOAA.NDBC:WIWF1:1,2017-11-09T12:00:00Z,25.5870,-81.0440,1.0,25.96,2 
ENP,ioos.station.NOAA.NDBC:WIWF1:1,2017-11-09T13:00:00Z,25.5870,-81.0440,1.0,25.89,2 
ENP,ioos.station.NOAA.NDBC:WIWF1:1,2017-11-09T14:00:00Z,25.5870,-81.0440,1.0,25.9,2 
ENP,ioos.station.NOAA.NDBC:WIWF1:1,2017-11-09T15:00:00Z,25.5870,-81.0440,1.0,25.98,2 
ENP,ioos.station.NOAA.NDBC:WIWF1:1,2017-11-09T16:00:00Z,25.5870,-81.0440,1.0,26.21,2 
ENP,ioos.station.NOAA.NDBC:WIWF1:1,2017-11-09T17:00:00Z,25.5870,-81.0440,1.0,26.55,2 
ENP,ioos.station.NOAA.NDBC:WIWF1:1,2017-11-09T18:00:00Z,25.5870,-81.0440,1.0,26.93,2 
ENP,ioos.station.NOAA.NDBC:WIWF1:1,2017-11-09T19:00:00Z,25.5870,-81.0440,1.0,27.34,2 
ENP,ioos.station.NOAA.NDBC:WIWF1:1,2017-11-09T20:00:00Z,25.5870,-81.0440,1.0,27.72,2 
ENP,ioos.station.NOAA.NDBC:WIWF1:1,2017-11-09T21:00:00Z,25.5870,-81.0440,1.0,27.92,2 
ENP,ioos.station.NOAA.NDBC:WIWF1:1,2017-11-09T22:00:00Z,25.5870,-81.0440,1.0,28.01,2 
ENP,ioos.station.NOAA.NDBC:WIWF1:1,2017-11-09T23:00:00Z,25.5870,-81.0440,1.0,27.92,2 
ENP,ioos.station.NOAA.NDBC:WIWF1:1,2017-11-10T00:00:00Z,25.5870,-81.0440,1.0,27.75,2 
ENP,ioos.station.NOAA.NDBC:WIWF1:1,2017-11-10T01:00:00Z,25.5870,-81.0440,1.0,27.55,2 
ENP,ioos.station.NOAA.NDBC:WIWF1:1,2017-11-10T02:00:00Z,25.5870,-81.0440,1.0,27.38,2 
ENP,ioos.station.NOAA.NDBC:WIWF1:1,2017-11-10T04:00:00Z,25.5870,-81.0440,1.0,26.98,2 
ENP,ioos.station.NOAA.NDBC:WIWF1:1,2017-11-10T05:00:00Z,25.5870,-81.0440,1.0,26.82,2 
ENP,ioos.station.NOAA.NDBC:WIWF1:1,2017-11-10T07:00:00Z,25.5870,-81.0440,1.0,26.61,2 
ENP,ioos.station.NOAA.NDBC:WIWF1:1,2017-11-10T08:00:00Z,25.5870,-81.0440,1.0,26.51,2 
ENP,ioos.station.NOAA.NDBC:WIWF1:1,2017-11-10T09:00:00Z,25.5870,-81.0440,1.0,26.4,2 
ENP,ioos.station.NOAA.NDBC:WIWF1:1,2017-11-10T10:00:00Z,25.5870,-81.0440,1.0,26.3,2 
ENP,ioos.station.NOAA.NDBC:WIWF1:1,2017-11-10T12:00:00Z,25.5870,-81.0440,1.0,26.16,2 
ENP,ioos.station.NOAA.NDBC:WIWF1:1,2017-11-10T13:00:00Z,25.5870,-81.0440,1.0,26.1,2 
ENP,ioos.station.NOAA.NDBC:WIWF1:1,2017-11-10T14:00:00Z,25.5870,-81.0440,1.0,26.1,2 
ENP,ioos.station.NOAA.NDBC:WIWF1:1,2017-11-10T15:00:00Z,25.5870,-81.0440,1.0,26.17,2 
ENP,ioos.station.NOAA.NDBC:WIWF1:1,2017-11-10T16:00:00Z,25.5870,-81.0440,1.0,26.32,2 
ENP,ioos.station.NOAA.NDBC:WIWF1:1,2017-11-10T17:00:00Z,25.5870,-81.0440,1.0,26.68,2 
ENP,ioos.station.NOAA.NDBC:WIWF1:1,2017-11-10T18:00:00Z,25.5870,-81.0440,1.0,27.06,2 
ENP,ioos.station.NOAA.NDBC:WIWF1:1,2017-11-10T19:00:00Z,25.5870,-81.0440,1.0,27.49,2 
ENP,ioos.station.NOAA.NDBC:WIWF1:1,2017-11-10T20:00:00Z,25.5870,-81.0440,1.0,27.84,2 
ENP,ioos.station.NOAA.NDBC:WIWF1:1,2017-11-10T21:00:00Z,25.5870,-81.0440,1.0,28.01,2 
ENP,ioos.station.NOAA.NDBC:WIWF1:1,2017-11-10T22:00:00Z,25.5870,-81.0440,1.0,28.03,2 
ENP,ioos.station.NOAA.NDBC:WIWF1:1,2017-11-10T23:00:00Z,25.5870,-81.0440,1.0,27.9,2 
ENP,ioos.station.NOAA.NDBC:WIWF1:1,2017-11-11T00:00:00Z,25.5870,-81.0440,1.0,27.69,2 
ENP,ioos.station.NOAA.NDBC:WIWF1:1,2017-11-11T01:00:00Z,25.5870,-81.0440,1.0,27.49,2 
ENP,ioos.station.NOAA.NDBC:WIWF1:1,2017-11-11T02:00:00Z,25.5870,-81.0440,1.0,27.22,2 
ENP,ioos.station.NOAA.NDBC:WIWF1:1,2017-11-11T04:00:00Z,25.5870,-81.0440,1.0,26.72,2 
ENP,ioos.station.NOAA.NDBC:WIWF1:1,2017-11-11T05:00:00Z,25.5870,-81.0440,1.0,26.51,2 
ENP,ioos.station.NOAA.NDBC:WIWF1:1,2017-11-11T07:00:00Z,25.5870,-81.0440,1.0,26.2,2 
ENP,ioos.station.NOAA.NDBC:WIWF1:1,2017-11-11T08:00:00Z,25.5870,-81.0440,1.0,26.04,2 
ENP,ioos.station.NOAA.NDBC:WIWF1:1,2017-11-11T09:00:00Z,25.5870,-81.0440,1.0,25.92,2 
ENP,ioos.station.NOAA.NDBC:WIWF1:1,2017-11-11T10:00:00Z,25.5870,-81.0440,1.0,25.78,2 
ENP,ioos.station.NOAA.NDBC:WIWF1:1,2017-11-11T12:00:00Z,25.5870,-81.0440,1.0,25.57,2 
ENP,ioos.station.NOAA.NDBC:WIWF1:1,2017-11-11T13:00:00Z,25.5870,-81.0440,1.0,25.46,2 
ENP,ioos.station.NOAA.NDBC:WIWF1:1,2017-11-11T14:00:00Z,25.5870,-81.0440,1.0,25.43,2 
ENP,ioos.station.NOAA.NDBC:WIWF1:1,2017-11-11T15:00:00Z,25.5870,-81.0440,1.0,25.5,2 
ENP,ioos.station.NOAA.NDBC:WIWF1:1,2017-11-11T16:00:00Z,25.5870,-81.0440,1.0,25.67,2 
ENP,ioos.station.NOAA.NDBC:WIWF1:1,2017-11-11T17:00:00Z,25.5870,-81.0440,1.0,26.02,2 
ENP,ioos.station.NOAA.NDBC:WIWF1:1,2017-11-11T18:00:00Z,25.5870,-81.0440,1.0,26.43,2 
ENP,ioos.station.NOAA.NDBC:WIWF1:1,2017-11-11T19:00:00Z,25.5870,-81.0440,1.0,26.85,2 
ENP,ioos.station.NOAA.NDBC:WIWF1:1,2017-11-11T20:00:00Z,25.5870,-81.0440,1.0,27.12,2 
ENP,ioos.station.NOAA.NDBC:WIWF1:1,2017-11-11T21:00:00Z,25.5870,-81.0440,1.0,27.23,2 
ENP,ioos.station.NOAA.NDBC:WIWF1:1,2017-11-11T22:00:00Z,25.5870,-81.0440,1.0,27.16,2 
ENP,ioos.station.NOAA.NDBC:WIWF1:1,2017-11-11T23:00:00Z,25.5870,-81.0440,1.0,26.99,2 
ENP,ioos.station.NOAA.NDBC:WIWF1:1,2017-11-12T00:00:00Z,25.5870,-81.0440,1.0,26.74,2 
ENP,ioos.station.NOAA.NDBC:WIWF1:1,2017-11-12T01:00:00Z,25.5870,-81.0440,1.0,26.47,2 
ENP,ioos.station.NOAA.NDBC:WIWF1:1,2017-11-12T02:00:00Z,25.5870,-81.0440,1.0,26.2,2 
ENP,ioos.station.NOAA.NDBC:WIWF1:1,2017-11-12T05:00:00Z,25.5870,-81.0440,1.0,25.76,2 
ENP,ioos.station.NOAA.NDBC:WIWF1:1,2017-11-12T08:00:00Z,25.5870,-81.0440,1.0,25.45,2 
ENP,ioos.station.NOAA.NDBC:WIWF1:1,2017-11-12T09:00:00Z,25.5870,-81.0440,1.0,25.37,2 
ENP,ioos.station.NOAA.NDBC:WIWF1:1,2017-11-12T10:00:00Z,25.5870,-81.0440,1.0,25.3,2 
ENP,ioos.station.NOAA.NDBC:WIWF1:1,2017-11-12T13:00:00Z,25.5870,-81.0440,1.0,25.09,2 
ENP,ioos.station.NOAA.NDBC:WIWF1:1,2017-11-12T14:00:00Z,25.5870,-81.0440,1.0,25.09,2 
ENP,ioos.station.NOAA.NDBC:WIWF1:1,2017-11-12T15:00:00Z,25.5870,-81.0440,1.0,25.22,2 
ENP,ioos.station.NOAA.NDBC:WIWF1:1,2017-11-12T16:00:00Z,25.5870,-81.0440,1.0,25.51,2 
ENP,ioos.station.NOAA.NDBC:WIWF1:1,2017-11-12T17:00:00Z,25.5870,-81.0440,1.0,25.87,2 
ENP,ioos.station.NOAA.NDBC:WIWF1:1,2017-11-12T18:00:00Z,25.5870,-81.0440,1.0,26.19,2 
ENP,ioos.station.NOAA.NDBC:WIWF1:1,2017-11-12T19:00:00Z,25.5870,-81.0440,1.0,26.44,2 
ENP,ioos.station.NOAA.NDBC:WIWF1:1,2017-11-12T20:00:00Z,25.5870,-81.0440,1.0,26.63,2 
ENP,ioos.station.NOAA.NDBC:WIWF1:1,2017-11-12T21:00:00Z,25.5870,-81.0440,1.0,26.71,2 
ENP,ioos.station.NOAA.NDBC:WIWF1:1,2017-11-12T22:00:00Z,25.5870,-81.0440,1.0,26.73,2 
ENP,ioos.station.NOAA.NDBC:WIWF1:1,2017-11-12T23:00:00Z,25.5870,-81.0440,1.0,26.44,2 
ENP,ioos.station.NOAA.NDBC:WIWF1:1,2017-11-13T00:00:00Z,25.5870,-81.0440,1.0,26.26,2 
ENP,ioos.station.NOAA.NDBC:WIWF1:1,2017-11-13T01:00:00Z,25.5870,-81.0440,1.0,26.12,2 
ENP,ioos.station.NOAA.NDBC:WIWF1:1,2017-11-13T02:00:00Z,25.5870,-81.0440,1.0,25.95,2 
ENP,ioos.station.NOAA.NDBC:WIWF1:1,2017-11-13T04:00:00Z,25.5870,-81.0440,1.0,25.75,2 
ENP,ioos.station.NOAA.NDBC:WIWF1:1,2017-11-13T05:00:00Z,25.5870,-81.0440,1.0,25.68,2 
ENP,ioos.station.NOAA.NDBC:WIWF1:1,2017-11-13T07:00:00Z,25.5870,-81.0440,1.0,25.55,2 
ENP,ioos.station.NOAA.NDBC:WIWF1:1,2017-11-13T08:00:00Z,25.5870,-81.0440,1.0,25.51,2 
ENP,ioos.station.NOAA.NDBC:WIWF1:1,2017-11-13T09:00:00Z,25.5870,-81.0440,1.0,25.47,2 
ENP,ioos.station.NOAA.NDBC:WIWF1:1,2017-11-13T10:00:00Z,25.5870,-81.0440,1.0,25.41,2 
ENP,ioos.station.NOAA.NDBC:WIWF1:1,2017-11-13T12:00:00Z,25.5870,-81.0440,1.0,25.28,2 
ENP,ioos.station.NOAA.NDBC:WIWF1:1,2017-11-13T13:00:00Z,25.5870,-81.0440,1.0,25.2,2 
ENP,ioos.station.NOAA.NDBC:WIWF1:1,2017-11-13T14:00:00Z,25.5870,-81.0440,1.0,25.16,2 
ENP,ioos.station.NOAA.NDBC:WIWF1:1,2017-11-13T15:00:00Z,25.5870,-81.0440,1.0,25.19,2 
ENP,ioos.station.NOAA.NDBC:WIWF1:1,2017-11-13T16:00:00Z,25.5870,-81.0440,1.0,25.36,2 
ENP,ioos.station.NOAA.NDBC:WIWF1:1,2017-11-13T17:00:00Z,25.5870,-81.0440,1.0,25.55,2 
ENP,ioos.station.NOAA.NDBC:WIWF1:1,2017-11-13T18:00:00Z,25.5870,-81.0440,1.0,25.94,2 
ENP,ioos.station.NOAA.NDBC:WIWF1:1,2017-11-13T19:00:00Z,25.5870,-81.0440,1.0,26.24,2 
ENP,ioos.station.NOAA.NDBC:WIWF1:1,2017-11-13T20:00:00Z,25.5870,-81.0440,1.0,26.38,2 
ENP,ioos.station.NOAA.NDBC:WIWF1:1,2017-11-13T21:00:00Z,25.5870,-81.0440,1.0,26.47,2 
ENP,ioos.station.NOAA.NDBC:WIWF1:1,2017-11-13T22:00:00Z,25.5870,-81.0440,1.0,26.47,2 
ENP,ioos.station.NOAA.NDBC:WIWF1:1,2017-11-13T23:00:00Z,25.5870,-81.0440,1.0,26.39,2 
ENP,ioos.station.NOAA.NDBC:WIWF1:1,2017-11-14T00:00:00Z,25.5870,-81.0440,1.0,26.19,2 
ENP,ioos.station.NOAA.NDBC:WIWF1:1,2017-11-14T01:00:00Z,25.5870,-81.0440,1.0,25.99,2 
ENP,ioos.station.NOAA.NDBC:WIWF1:1,2017-11-14T02:00:00Z,25.5870,-81.0440,1.0,25.77,2 
ENP,ioos.station.NOAA.NDBC:WIWF1:1,2017-11-14T04:00:00Z,25.5870,-81.0440,1.0,25.45,2 
ENP,ioos.station.NOAA.NDBC:WIWF1:1,2017-11-14T05:00:00Z,25.5870,-81.0440,1.0,25.33,2 
ENP,ioos.station.NOAA.NDBC:WIWF1:1,2017-11-14T07:00:00Z,25.5870,-81.0440,1.0,25.12,2 
ENP,ioos.station.NOAA.NDBC:WIWF1:1,2017-11-14T08:00:00Z,25.5870,-81.0440,1.0,25.03,2 
ENP,ioos.station.NOAA.NDBC:WIWF1:1,2017-11-14T09:00:00Z,25.5870,-81.0440,1.0,24.91,2 
ENP,ioos.station.NOAA.NDBC:WIWF1:1,2017-11-14T10:00:00Z,25.5870,-81.0440,1.0,24.81,2 
ENP,ioos.station.NOAA.NDBC:WIWF1:1,2017-11-14T12:00:00Z,25.5870,-81.0440,1.0,24.53,2 
ENP,ioos.station.NOAA.NDBC:WIWF1:1,2017-11-14T13:00:00Z,25.5870,-81.0440,1.0,24.41,2 
ENP,ioos.station.NOAA.NDBC:WIWF1:1,2017-11-14T14:00:00Z,25.5870,-81.0440,1.0,24.35,2 
ENP,ioos.station.NOAA.NDBC:WIWF1:1,2017-11-14T15:00:00Z,25.5870,-81.0440,1.0,24.4,2 
ENP,ioos.station.NOAA.NDBC:WIWF1:1,2017-11-14T16:00:00Z,25.5870,-81.0440,1.0,24.67,2 
ENP,ioos.station.NOAA.NDBC:WIWF1:1,2017-11-14T17:00:00Z,25.5870,-81.0440,1.0,25.11,2 
ENP,ioos.station.NOAA.NDBC:WIWF1:1,2017-11-14T18:00:00Z,25.5870,-81.0440,1.0,25.58,2 